Starlink 4683

operational
NORAD ID: 53712 Int'l Des: 2022-107 Owner: SPXS Country: US Constellation: starlink
LEOCIRCULAR

关于 Starlink 4683

正在加载描述...

实时位置

正在加载3D地球...

即将过境

高度历史

Altitude vs Time

uPlot chart will show altitude changes over time

两行轨道根数

1 53712U 22107N 26034.99383846 .00000475 00000-0 47950-4 0 9990
2 53712 53.2181 39.9353 0001479 83.3707 276.7453 15.08840124189411
Epoch: Feb 3, 2026 • Age: 24 hours

当前状态

高度 540.6 km
速度 7.60 km/s
星下点 28.84°N, 73.45°W
发射日期 Sep 5, 2022
运行时间 3.4 years
类型 internet

技术详情

分类 Payload
质量 305.00 kg
干质量 290.00 kg
总质量 305.00 kg
长度 0.20 m
直径 2.80 m
跨度 9.00 m
形状 Box + pan
制造商 SPXS
平台类型 Starlink
阶段状态 In Orbit
所有者/国家 SPXS/US

大型星座

Loading constellations...